• MPC Preparation (Info)

  • MPEC 2016-F62 : 2016 FT6

    The following Minor Planet Electronic Circular may be linked-to from your own Web pages, but must not otherwise be redistributed electronically.

    A form allowing access to any MPEC is at the bottom of this page.


    Read MPEC 2016-F61 Read MPEC 2016-F63


    M.P.E.C. 2016-F62                                Issued 2016 Mar. 27, 16:13 UT
    
         The Minor Planet Electronic Circulars contain information on unusual
             minor planets and routine data on comets.  They are published
        on behalf of Division F of the International Astronomical Union by the
              Minor Planet Center, Smithsonian Astrophysical Observatory,
                              Cambridge, MA 02138, U.S.A.
    
                 Prepared using the Tamkin Foundation Computer Network
    
                                  MPC@CFA.HARVARD.EDU
                URL https://www.minorplanetcenter.net/    ISSN 1523-6714
    
                                       2016 FT6
    
    Observations:
         K16F06T* C2016 03 25.24535 08 13 12.852-04 13 19.03         20.8 iLEF062F51
         K16F06T  C2016 03 25.26417 08 13 17.317-04 12 32.42         20.8 iLEF062F51
         K16F06T  C2016 03 25.27665 08 13 20.259-04 12 01.84         20.6 iLEF062F51
         K16F06T KC2016 03 26.07579708 16 29.66 -03 40 08.9          21.2 VuEF062H21
         K16F06T KC2016 03 26.08372108 16 31.46 -03 39 50.3          21.3 VuEF062H21
         K16F06T KC2016 03 26.09245908 16 33.45 -03 39 29.7          21.6 VuEF062H21
         K16F06T KC2016 03 26.12473 08 16 41.14 -03 38 12.6          19.9 RoEF062291
         K16F06T KC2016 03 26.12663 08 16 41.56 -03 38 08.4          19.8 RoEF062291
         K16F06T KC2016 03 26.12853 08 16 42.02 -03 38 03.9          19.9 RoEF062291
         K16F06T  C2016 03 26.16157 08 16 49.42 -03 36 47.1          20.1 RoEF062926
         K16F06T  C2016 03 26.17380 08 16 52.21 -03 36 18.8          19.7 RoEF062926
         K16F06T  C2016 03 26.18597 08 16 54.94 -03 35 50.3          19.8 RoEF062926
         K16F06T KC2016 03 26.84797 08 19 25.23 -03 10 50.0                tEF062595
         K16F06T KC2016 03 26.85401 08 19 26.63 -03 10 36.6          21.0 RqEF062587
         K16F06T KC2016 03 26.85960 08 19 27.83 -03 10 24.5                qEF062587
         K16F06T KC2016 03 26.88830 08 19 34.06 -03 09 19.9                qEF062587
         K16F06T KC2016 03 26.92333 08 19 41.74 -03 08 02.8          20.5 VtEF062595
         K16F06T KC2016 03 27.18453 08 20 39.76 -02 58 26.2          20.4 RoEF062291
         K16F06T KC2016 03 27.18626 08 20 40.10 -02 58 21.8          20.6 RoEF062291
         K16F06T KC2016 03 27.18800 08 20 40.53 -02 58 18.5                oEF062291
         K16F06T  C2016 03 27.20304 08 20 43.71 -02 57 45.5          20.1 RoEF062926
         K16F06T  C2016 03 27.20987 08 20 45.17 -02 57 30.9          20.1 RoEF062926
         K16F06T  C2016 03 27.21574 08 20 46.44 -02 57 18.5          20.1 RoEF062926
         K16F06T  C2016 03 27.21946 08 20 47.20 -02 57 10.1          20.4 RoEF062926
         K16F06T  C2016 03 27.22318 08 20 48.01 -02 57 02.0          20.0 RoEF062926
         K16F06T  C2016 03 27.23001 08 20 49.50 -02 56 47.3          20.4 RoEF062926
    
    Observer details:
    291 LPL/Spacewatch II.  Observers T. H. Bressi, J. V. Scotti.  1.8-m f/2.7
        reflector + CCD.
    587 Sormano.  Observers I. Proserpio, P. Sicoli, A. Testa.  Measurer P. Sicoli.
        0.5-m f/6.8 reflector + CCD.
    595 Farra d'Isonzo.  Observer E. Pettarin.  0.61-m f/4.0 reflector + CCD.
    926 Tenagra II Observatory.  Observers M. Schwartz, P. R. Holvorcem.  Measurer
        M. Schwartz.  0.41-m f/3.75 astrograph + CCD, 0.81-m f/7 Ritchey-Chretien
        + CCD.
    F51 Pan-STARRS 1, Haleakala.  Observers B. Gibson, T. Goggia, N. Primak,
        A. Schultz, M. Willman.  Measurers K. Chambers, S. Chastel, L. Denneau,
        H. Flewelling, M. Huber, E. Lilly, E. Magnier, R. Wainscoat, C. Waters,
        R. Weryk.  1.8-m Ritchey-Chretien + CCD.
    H21 Astronomical Research Observatory, Westfield.  Observer R. Holmes.
        Measurers S. Foglia, L. Buzzi, T. Linder, R. Holmes.  0.81-m f/4.0
        astrograph + CCD.
    
    Orbital elements:
    2016 FT6                                                 Earth MOID = 0.2128 AU
    Epoch 2016 Jan. 13.0 TT = JDT 2457400.5                 MPC
    M 357.33712              (2000.0)            P               Q
    n   0.30738631     Peri.  200.54199     +0.82054404     -0.56571257
    a   2.1744347      Node   194.78842     +0.55887285     +0.82403696
    e   0.8501118      Incl.   18.67035     +0.11986915     +0.03053494
    P   3.21           H   19.9           G   0.15           U   9
    Residuals in seconds of arc
    160325 F51  0.3-  0.1-    160326 926  0.1-  0.1-    160327 291  0.5-  0.7+
    160325 F51  0.1+  0.1+    160326 926  0.4+  0.2-    160327 291  0.4+  0.2+
    160325 F51  0.2+  0.0     160326 926  0.2+  0.0     160327 926  0.0   0.4+
    160326 H21  0.5-  0.2-    160326 595  0.2+  0.6-    160327 926  0.1-  0.1+
    160326 H21  0.4-  0.1-    160326 587  0.5+  0.6-    160327 926  0.1+  0.2-
    160326 H21  0.3-  0.1+    160326 587  0.2+  1.0-    160327 926  0.5-  0.1+
    160326 291  0.1+  0.3+    160326 587  0.5-  0.1-    160327 926  0.3-  0.1+
    160326 291  0.0   0.1+    160326 595  0.3+  0.7-    160327 926  0.1+  0.0
    160326 291  0.4+  0.1+    160327 291  0.0   0.1+
    
    Ephemeris:
    2016 FT6                 a,e,i = 2.17, 0.85, 19                  q = 0.3259
    Date    TT    R. A. (2000) Decl.     Delta      r     Elong.  Phase     V
    2016 02 26    02 27 57.3 -38 22 17   0.2756  0.8846    59.9   104.4    20.7
    ...
    2016 03 12    06 48 24.4 -18 43 53   0.3221  1.1333   107.6    56.7    19.8
    ...
    2016 03 20    07 48 29.1 -08 31 18   0.4353  1.2557   117.1    44.9    20.3
    ...
    2016 03 26    08 16 11.9 -03 42 57   0.5376  1.3434   119.0    40.5    20.8
    2016 03 27    08 19 59.1 -03 05 03   0.5556  1.3577   119.1    40.0    20.9
    2016 03 28    08 23 35.5 -02 29 31   0.5738  1.3719   119.1    39.5    20.9
    ...
    2016 04 03    08 42 13.2 +00 22 35   0.6874  1.4553   118.0    37.3    21.4
    ...
    2016 04 11    09 01 43.9 +02 53 10   0.8477  1.5619   114.9    35.6    22.0
    ...
    2016 04 26    09 30 08.9 +05 17 02   1.1672  1.7494   107.0    33.4    22.8
    
    A. U. Tomatic                (C) Copyright 2016 MPC           M.P.E.C. 2016-F62
    

    Read MPEC 2016-F61 Read MPEC 2016-F63


    MPEC number:

    Enter an MPEC number in one of the following forms:

    • 1997-B01 (the full form)
    • J97B01 (the packed version of the full form)
    • B01 (the abbreviated form)